MTN7508 KILM-KRDU

Flight info

Callsign MTN7508
Flight time N/A
Altitude 6000
Route DIRECT
Aircraft AT76/M-SDFGIRY/S

Departure

Time 2026-05-05 01:33
Airport Wilmington International Airport (KILM)

Arrival

Time N/A
Airport Raleigh-Durham International Airport (KRDU)
Time Latitude Longitude Altitude Speed Heading
2026-05-05 01:15 34.27512 -77.90984 32 ft 0 kts 257°
2026-05-05 01:27 34.27511 -77.90987 32 ft 0 kts 257°
2026-05-05 01:30 34.27515 -77.90996 32 ft 1 kts 308°
2026-05-05 01:30 34.27532 -77.90995 32 ft 4 kts 15°
2026-05-05 01:30 34.27572 -77.90976 32 ft 8 kts 17°
2026-05-05 01:31 34.27635 -77.90970 32 ft 10 kts
2026-05-05 01:31 34.27709 -77.90973 32 ft 11 kts 354°
2026-05-05 01:31 34.27788 -77.90988 32 ft 12 kts 348°
2026-05-05 01:31 34.27871 -77.91009 32 ft 12 kts 348°
2026-05-05 01:32 34.27956 -77.91026 32 ft 13 kts 351°
2026-05-05 01:32 34.28037 -77.91010 33 ft 12 kts 38°
2026-05-05 01:32 34.28084 -77.90937 35 ft 10 kts 60°
2026-05-05 01:32 34.28070 -77.90893 35 ft 1 kts 159°
2026-05-05 01:33 34.28009 -77.90863 35 ft 39 kts 159°
2026-05-05 01:33 34.27516 -77.90637 35 ft 108 kts 160°
2026-05-05 01:33 34.26709 -77.90253 295 ft 137 kts 158°
2026-05-05 01:33 34.25743 -77.89760 713 ft 153 kts 157°
2026-05-05 01:34 34.24749 -77.89222 1073 ft 167 kts 158°
2026-05-05 01:34 34.23685 -77.88591 1448 ft 171 kts 158°
2026-05-05 01:34 34.22614 -77.87958 1887 ft 172 kts 158°
2026-05-05 01:34 34.21537 -77.87322 2352 ft 173 kts 158°
2026-05-05 01:35 34.20451 -77.86681 2816 ft 175 kts 158°
2026-05-05 01:35 34.19346 -77.86023 3276 ft 179 kts 153°
2026-05-05 01:35 34.18585 -77.84828 3687 ft 189 kts 104°
2026-05-05 01:35 34.18763 -77.83288 4140 ft 190 kts 58°
2026-05-05 01:36 34.19729 -77.82261 4601 ft 186 kts 22°
2026-05-05 01:36 34.20941 -77.82141 5049 ft 177 kts 341°
2026-05-05 01:36 34.22104 -77.82638 5431 ft 179 kts 335°
2026-05-05 01:36 34.23240 -77.83276 5879 ft 181 kts 331°
2026-05-05 01:37 34.24364 -77.83970 6308 ft 183 kts 331°
2026-05-05 01:37 34.25505 -77.84678 6709 ft 185 kts 331°
2026-05-05 01:37 34.26657 -77.85381 7114 ft 186 kts 332°
2026-05-05 01:37 34.27824 -77.86061 7524 ft 186 kts 333°
2026-05-05 01:38 34.28997 -77.86733 7931 ft 187 kts 333°
2026-05-05 01:38 34.30173 -77.87404 8337 ft 187 kts 333°
2026-05-05 01:38 34.31353 -77.88073 8750 ft 187 kts 333°
2026-05-05 01:38 34.32519 -77.88736 9143 ft 188 kts 333°
2026-05-05 01:39 34.33704 -77.89411 9538 ft 188 kts 333°
2026-05-05 01:39 34.34910 -77.90096 9903 ft 191 kts 333°
2026-05-05 01:39 34.36141 -77.90796 9993 ft 205 kts 333°
2026-05-05 01:39 34.37480 -77.91558 10026 ft 220 kts 333°
2026-05-05 01:40 34.38902 -77.92367 10039 ft 231 kts 333°
2026-05-05 01:40 34.40387 -77.93208 10055 ft 240 kts 333°
2026-05-05 01:40 34.41919 -77.94080 10046 ft 246 kts 333°
2026-05-05 01:40 34.43481 -77.94975 10054 ft 251 kts 333°
2026-05-05 01:41 34.45073 -77.95881 10046 ft 255 kts 333°
2026-05-05 01:41 34.46685 -77.96798 10041 ft 257 kts 333°
2026-05-05 01:41 34.48306 -77.97726 10042 ft 258 kts 333°
2026-05-05 01:41 34.49914 -77.98646 10042 ft 260 kts 333°
2026-05-05 01:42 34.51553 -77.99577 10046 ft 260 kts 333°
2026-05-05 01:42 34.53194 -78.00514 10043 ft 261 kts 333°
2026-05-05 01:42 34.54835 -78.01454 10046 ft 261 kts 333°
2026-05-05 01:42 34.56478 -78.02394 10047 ft 261 kts 333°
2026-05-05 01:43 34.58122 -78.03335 10050 ft 261 kts 333°
2026-05-05 01:43 34.59767 -78.04275 10053 ft 261 kts 333°
2026-05-05 01:43 34.61409 -78.05213 10050 ft 261 kts 333°
2026-05-05 01:43 34.63048 -78.06152 10050 ft 260 kts 333°
2026-05-05 01:44 34.64685 -78.07091 10052 ft 260 kts 333°
2026-05-05 01:44 34.66316 -78.08026 10062 ft 260 kts 332°
2026-05-05 01:44 34.67957 -78.08958 10057 ft 260 kts 332°
2026-05-05 01:44 34.69566 -78.09880 10056 ft 260 kts 332°
2026-05-05 01:45 34.71199 -78.10821 10049 ft 260 kts 332°
2026-05-05 01:45 34.72830 -78.11761 10056 ft 260 kts 332°
2026-05-05 01:45 34.74462 -78.12700 10052 ft 259 kts 332°
2026-05-05 01:45 34.76096 -78.13636 10051 ft 259 kts 332°
2026-05-05 01:46 34.77728 -78.14573 10053 ft 259 kts 332°
2026-05-05 01:46 34.79360 -78.15512 10050 ft 259 kts 332°
2026-05-05 01:46 34.80992 -78.16451 10042 ft 259 kts 332°
2026-05-05 01:46 34.82623 -78.17391 10049 ft 259 kts 332°
2026-05-05 01:47 34.84254 -78.18330 10046 ft 259 kts 332°
2026-05-05 01:47 34.85864 -78.19258 10039 ft 259 kts 332°
2026-05-05 01:47 34.87517 -78.20210 10040 ft 259 kts 332°
2026-05-05 01:47 34.89127 -78.21139 10044 ft 259 kts 332°
2026-05-05 01:48 34.90756 -78.22078 10039 ft 260 kts 332°
2026-05-05 01:48 34.92387 -78.23019 10045 ft 260 kts 332°
2026-05-05 01:48 34.94022 -78.23957 10046 ft 260 kts 331°
2026-05-05 01:48 34.95659 -78.24882 10046 ft 259 kts 332°
2026-05-05 01:49 34.97294 -78.25807 10050 ft 259 kts 331°
2026-05-05 01:49 34.98925 -78.26741 10040 ft 259 kts 331°
2026-05-05 01:49 35.00549 -78.27682 10041 ft 258 kts 331°
2026-05-05 01:49 35.02171 -78.28625 10040 ft 258 kts 331°
2026-05-05 01:50 35.03792 -78.29568 10045 ft 258 kts 331°
2026-05-05 01:50 35.05413 -78.30507 10046 ft 258 kts 331°
2026-05-05 01:50 35.07012 -78.31434 10041 ft 258 kts 331°
2026-05-05 01:50 35.08629 -78.32370 10038 ft 258 kts 331°